Location: Capel Gartheli
(52.1833°N, 4.0667°W)
Time: 18:05:37
(UTC+00:00)

SL-16 R/B - Pass Details

Date: 18 February 2020
Orbit: 843 x 847 km, 71.0° (Epoch: 31 March)

Event Time Altitude Azimuth Distance (km) Brightness Sun altitude
Exits shadow 06:10:39 16° 260° (W) 2,086 3.6 -12.3°
Maximum altitude 06:14:31 33° 317° (NW) 1,389 3.0 -11.7°
Drops below altitude 10° 06:19:38 10° 21° (NNE) 2,478 4.8 -10.9°
Sets 06:22:21 0° 31° (NNE) 3,415 5.7 -10.5°
